tititudorancea.com
Station Historical Data
Daily Summary for May 13, 2018 Units:  Metric    English   Both
« Previous Day
Next Day »
Daily Weekly Monthly Yearly Custom
  High: Low: Average:
Temperature: -17.8 °C 9 °C 10.7 °C
Dew Point: -17.8 °C 7.6 °C 8.3 °C
Humidity: Humidity % 72 % 86 %
Wind Speed: 0 km/h 3.7 km/h 12.2 km/h
Wind Gust: 0 km/h - -
Wind:- - SSW
Pressure: 0 hPa 1027.7 hPa -
Precipitation: 0 mm    
Historical Graphs
 
 
Ararat weather Find more about Weather in Ararat, AU


 



 


Tabular Data for May 13, 2018
Time Temperature Dew Point Pressure Wind Wind Speed Wind Gust Humidity Rainfall Rate (Hourly)
-17.8 °C -17.8 °C 0 hPa Calm     Humidity % 0 mm
00:03 10.2 °C 8.3 °C 1027.7 hPa SSW 17.2 km/h 25.9 km/h 88 % 0 mm
00:08 10.2 °C 8.4 °C 1027.7 hPa South 12.2 km/h 18.5 km/h 89 % 0 mm
00:13 10.2 °C 8.4 °C 1027.7 hPa South 12.9 km/h 18.5 km/h 89 % 0 mm
00:18 10.1 °C 8.4 °C 1027.7 hPa South 14.6 km/h 14.8 km/h 89 % 0 mm
00:23 10.1 °C 8.4 °C 1027.7 hPa South 9.8 km/h 24.1 km/h 89 % 0 mm
00:28 10.1 °C 8.4 °C 1027.7 hPa SSW 18.8 km/h 25.9 km/h 89 % 0 mm
00:33 10.1 °C 8.4 °C 1027.7 hPa SSW 18.8 km/h 27.8 km/h 89 % 0 mm
00:38 10.1 °C 8.4 °C 1027.7 hPa South 19.2 km/h 24.1 km/h 89 % 0 mm
00:43 10.2 °C 8.4 °C 1027.7 hPa SSW 10 km/h 20.4 km/h 89 % 0 mm
00:48 10.1 °C 8.4 °C 1027.7 hPa South 13.7 km/h 18.5 km/h 89 % 0 mm
00:53 10.1 °C 8.4 °C 1027.7 hPa South 10.1 km/h 22.2 km/h 89 % 0 mm
00:58 10.1 °C 8.2 °C 1027.7 hPa South 17.7 km/h 25.9 km/h 88 % 0 mm
01:03 10.2 °C 8.3 °C 1027.7 hPa SSW 14.8 km/h 18.5 km/h 88 % 0 mm
01:08 10.2 °C 8.9 °C 1027.7 hPa South 16.4 km/h 25.9 km/h 92 % 0 mm
01:13 10.2 °C 8.4 °C 1027.7 hPa South 9.8 km/h 14.8 km/h 89 % 0 mm
01:18 10.1 °C 8.4 °C 1027.7 hPa SSW 11.7 km/h 18.5 km/h 89 % 0 mm
01:23 10.1 °C 8.4 °C 1027.7 hPa South 12.1 km/h 16.7 km/h 89 % 0 mm
01:28 10.2 °C 8.4 °C 1027.7 hPa South 10.5 km/h 18.5 km/h 89 % 0 mm
01:33 10.1 °C 8.4 °C 1027.7 hPa South 7.9 km/h 8 km/h 89 % 0 mm
01:38 10.1 °C 8.6 °C 1027.7 hPa South 9.7 km/h 16.7 km/h 90 % 0 mm
01:43 10.1 °C 8.5 °C 1027.7 hPa South 9.3 km/h 13 km/h 90 % 0 mm
01:48 10.1 °C 8.5 °C 1027.7 hPa SSW 14.2 km/h 20.4 km/h 90 % 0 mm
01:53 10.1 °C 8.5 °C 1027.7 hPa SSW 7.4 km/h 18.5 km/h 90 % 0 mm
01:58 10.1 °C 8.5 °C 1027.7 hPa South 9 km/h 13 km/h 90 % 0 mm
02:03 10.1 °C 8.5 °C 1027.7 hPa SSW 13 km/h 14.8 km/h 90 % 0 mm
02:08 10.1 °C 8.6 °C 1027.7 hPa South 8.2 km/h 16.7 km/h 90 % 0 mm
02:13 10.1 °C 8.6 °C 1027.7 hPa South 10.9 km/h 14.8 km/h 90 % 0 mm
02:18 10.1 °C 8.6 °C 1027.7 hPa SSW 11.1 km/h 18.5 km/h 90 % 0 mm
02:23 10.1 °C 8.6 °C 1027.7 hPa South 14.5 km/h 18.5 km/h 90 % 0 mm
02:28 10.1 °C 8.6 °C 1027.7 hPa South 16.3 km/h 18.5 km/h 90 % 0 mm
02:33 10.1 °C 8.6 °C 1027.7 hPa South 7.9 km/h 16.7 km/h 90 % 0 mm
02:38 10.1 °C 8.6 °C 1027.7 hPa SSW 10.9 km/h 18.5 km/h 90 % 0 mm
02:43 10.1 °C 8.6 °C 1027.7 hPa SSW 8.9 km/h 14.8 km/h 90 % 0 mm
02:48 10.1 °C 8.6 °C 1027.7 hPa South 11.4 km/h 14.8 km/h 90 % 0 mm
02:53 10.2 °C 8.6 °C 1027.7 hPa South 16.1 km/h 18.5 km/h 90 % 0 mm
02:58 10.2 °C 8.6 °C 1027.7 hPa South 9 km/h 16.7 km/h 90 % 0 mm
03:03 10.2 °C 8.6 °C 1027.7 hPa South 7.7 km/h 14.8 km/h 90 % 0 mm
03:08 10.2 °C 8.6 °C 1027.7 hPa North 13.5 km/h 19.3 km/h 90 % 0 mm
03:13 10.2 °C 8.7 °C 1027.7 hPa South 13.8 km/h 20.4 km/h 90 % 0 mm
03:18 10.2 °C 8.5 °C 1027.7 hPa South 10.9 km/h 14.8 km/h 89 % 0 mm
03:23 10.2 °C 8.5 °C 1027.7 hPa South 10.6 km/h 18.5 km/h 89 % 0 mm
03:28 10.2 °C 8.7 °C 1027.7 hPa South 12.4 km/h 18.5 km/h 90 % 0 mm
03:33 10.2 °C 8.7 °C 1027.7 hPa SSW 13.8 km/h 18.5 km/h 90 % 0 mm
03:38 10.2 °C 8.6 °C 1027.7 hPa SSW 14 km/h 18.5 km/h 90 % 0 mm
03:43 10.2 °C 8.6 °C 1027.7 hPa SSW 16.6 km/h 22.5 km/h 90 % 0 mm
03:48 10.2 °C 8.6 °C 1027.7 hPa South 14.6 km/h 18.5 km/h 90 % 0 mm
03:53 10.1 °C 8.6 °C 1027.7 hPa South 17.4 km/h 18.5 km/h 90 % 0 mm
03:58 10.1 °C 8.4 °C 1027.7 hPa South 9.8 km/h 16.1 km/h 89 % 0 mm
04:03 10.2 °C 8.4 °C 1027.7 hPa South 13.7 km/h 20.4 km/h 89 % 0 mm
04:08 10.2 °C 8.4 °C 1027.7 hPa South 11.9 km/h 19.3 km/h 89 % 0 mm
04:13 10.2 °C 8.5 °C 1028 hPa South 9.7 km/h 17.7 km/h 89 % 0 mm
04:18 10.2 °C 8.3 °C 1027.7 hPa South 9.3 km/h 18.5 km/h 88 % 0 mm
04:23 10.2 °C 8.5 °C 1028 hPa SSW 11.9 km/h 18.5 km/h 89 % 0 mm
04:28 10.2 °C 8.5 °C 1028 hPa South 10.3 km/h 16.1 km/h 89 % 0 mm
04:33 10.2 °C 8.5 °C 1028 hPa SSW 11.1 km/h 16.1 km/h 89 % 0 mm
04:38 10.2 °C 8.4 °C 1028 hPa South 8.7 km/h 11.1 km/h 89 % 0 mm
04:43 10.2 °C 8.4 °C 1028 hPa South 10.6 km/h 14.8 km/h 89 % 0 mm
04:48 10.2 °C 8.4 °C 1028 hPa SSW 14.5 km/h 20.9 km/h 89 % 0 mm
04:53 10.2 °C 8.4 °C 1028 hPa SSW 11.1 km/h 22.2 km/h 89 % 0 mm
04:58 10.1 °C 8.4 °C 1028 hPa South 12.1 km/h 14.8 km/h 89 % 0 mm
05:03 10.1 °C 8.2 °C 1027.7 hPa South 12.2 km/h 25.9 km/h 88 % 0 mm
05:08 10.1 °C 8.2 °C 1027.7 hPa SSW 11.7 km/h 27.8 km/h 88 % 0 mm
05:13 10.1 °C 8.2 °C 1027.7 hPa SSW 13.2 km/h 18.5 km/h 88 % 0 mm
05:18 10.1 °C 8.2 °C 1027.7 hPa South 15.3 km/h 18.5 km/h 88 % 0 mm
05:23 10.1 °C 8.2 °C 1028 hPa SSW 13 km/h 22.2 km/h 88 % 0 mm
05:28 10.1 °C 8.2 °C 1028 hPa South 13.2 km/h 22.2 km/h 88 % 0 mm
05:33 10.1 °C 8 °C 1028 hPa SSW 15.8 km/h 20.4 km/h 87 % 0 mm
05:38 10.1 °C 8.2 °C 1028 hPa SSW 11.1 km/h 18.5 km/h 88 % 0 mm
05:43 10 °C 8.1 °C 1028 hPa South 10.9 km/h 24.1 km/h 88 % 0 mm
05:48 10 °C 8.1 °C 1028 hPa South 9.5 km/h 18.5 km/h 88 % 0 mm
05:53 10 °C 8.1 °C 1028 hPa South 11.7 km/h 12.9 km/h 88 % 0 mm
05:58 10 °C 8.1 °C 1028.3 hPa SSW 16.6 km/h 20.9 km/h 88 % 0 mm
06:03 10 °C 8.1 °C 1028.3 hPa SSW 10.9 km/h 18.5 km/h 88 % 0 mm
06:08 9.9 °C 8.1 °C 1028.3 hPa South 12.6 km/h 20.4 km/h 88 % 0 mm
06:13 9.9 °C 8.1 °C 1028.3 hPa South 13.7 km/h 20.4 km/h 88 % 0 mm
06:18 9.9 °C 8 °C 1028.3 hPa South 17.5 km/h 20.9 km/h 88 % 0 mm
06:23 9.9 °C 8 °C 1028.3 hPa SSW 15.8 km/h 18.5 km/h 88 % 0 mm
06:28 9.9 °C 8.2 °C 1028.7 hPa SSW 13 km/h 20.9 km/h 89 % 0 mm
06:33 9.9 °C 8.2 °C 1028.7 hPa SSW 10.1 km/h 22.2 km/h 89 % 0 mm
06:38 9.9 °C 8.2 °C 1028.7 hPa SSW 14.3 km/h 16.7 km/h 89 % 0 mm
06:43 9.8 °C 8.1 °C 1028.7 hPa SSW 12.6 km/h 22.2 km/h 89 % 0 mm
06:48 9.8 °C 8.1 °C 1028.7 hPa SSE 14.6 km/h 18.5 km/h 89 % 0 mm
06:54 9.8 °C 8.1 °C 1028.7 hPa South 9.5 km/h 20.4 km/h 89 % 0 mm
06:58 9.8 °C 8.1 °C 1028.7 hPa SSW 11.6 km/h 18.5 km/h 89 % 0 mm
07:03 9.7 °C 8.5 °C 1028.7 hPa SSW 22.7 km/h 24.1 km/h 92 % 0 mm
07:08 9.7 °C 7.8 °C 1028.7 hPa SSW 17.1 km/h 24.1 km/h 88 % 0 mm
07:13 9.7 °C 7.8 °C 1028.7 hPa SSW 20.3 km/h 27.8 km/h 88 % 0 mm
07:19 9.7 °C 7.8 °C 1028.7 hPa SSW 16.9 km/h 20.4 km/h 88 % 0 mm
07:24 9.7 °C 7.8 °C 1028.7 hPa SSW 15.9 km/h 25.9 km/h 88 % 0 mm
07:29 9.7 °C 7.9 °C 1028.7 hPa South 17.1 km/h 25.9 km/h 89 % 0 mm
07:34 9.7 °C 7.8 °C 1028.7 hPa SSW 22.5 km/h 31.5 km/h 88 % 0 mm
07:39 9.7 °C 7.9 °C 1029 hPa SSW 18.7 km/h 25.9 km/h 89 % 0 mm
07:44 9.7 °C 7.9 °C 1029 hPa South 12.9 km/h 20.4 km/h 89 % 0 mm
07:49 9.7 °C 8 °C 1028.7 hPa South 17.2 km/h 25.9 km/h 89 % 0 mm
07:54 9.7 °C 8 °C 1028.7 hPa SSW 14.5 km/h 29.6 km/h 89 % 0 mm
07:59 9.8 °C 8.1 °C 1028.7 hPa SSW 21.2 km/h 29.6 km/h 89 % 0 mm
08:04 9.8 °C 8.1 °C 1028.7 hPa South 19 km/h 27.8 km/h 89 % 0 mm
08:09 9.8 °C 8.1 °C 1028.7 hPa South 21.4 km/h 29.6 km/h 89 % 0 mm
08:14 9.9 °C 8.2 °C 1028.7 hPa SSW 10.9 km/h 14.8 km/h 89 % 0 mm
08:19 9.9 °C 8.2 °C 1029 hPa SSW 21.1 km/h 29 km/h 89 % 0 mm
08:24 10 °C 8.3 °C 1029 hPa South 16.3 km/h 25.9 km/h 89 % 0 mm
08:29 10.1 °C 8.3 °C 1029 hPa SSW 19.8 km/h 27.8 km/h 89 % 0 mm
08:34 10.1 °C 8.3 °C 1029 hPa SSW 16.6 km/h 22.2 km/h 89 % 0 mm
08:39 10.1 °C 8.2 °C 1029 hPa SSW 19.2 km/h 27.8 km/h 88 % 0 mm
08:44 10.2 °C 8.3 °C 1029 hPa South 24.1 km/h 24.1 km/h 88 % 0 mm
08:49 10.2 °C 8.3 °C 1029.3 hPa SSW 18.5 km/h 25.9 km/h 88 % 0 mm
08:54 10.2 °C 8.3 °C 1029.3 hPa SSW 17.9 km/h 27.8 km/h 88 % 0 mm
08:59 10.3 °C 8.4 °C 1029.3 hPa South 16.3 km/h 22.2 km/h 88 % 0 mm
09:04 10.3 °C 8.4 °C 1029.3 hPa SSW 18 km/h 27.8 km/h 88 % 0 mm
09:09 10.4 °C 8.5 °C 1029.3 hPa South 15 km/h 18.5 km/h 88 % 0 mm
09:14 10.4 °C 8.6 °C 1029.3 hPa SSW 10.3 km/h 22.2 km/h 88 % 0 mm
09:19 10.5 °C 8.6 °C 1029.3 hPa South 13.2 km/h 18.5 km/h 88 % 0 mm
09:24 10.6 °C 8.7 °C 1029.7 hPa South 15.6 km/h 22.5 km/h 88 % 0 mm
09:29 10.6 °C 8.7 °C 1029.7 hPa SSW 14.5 km/h 18.5 km/h 88 % 0 mm
09:34 10.7 °C 8.8 °C 1029.7 hPa South 20.3 km/h 37 km/h 88 % 0 mm
09:39 10.7 °C 8.8 °C 1029.7 hPa SSW 13.7 km/h 17.7 km/h 88 % 0 mm
09:44 10.8 °C 8.8 °C 1029.7 hPa South 14.3 km/h 20.9 km/h 87 % 0 mm
09:49 10.9 °C 8.9 °C 1029.7 hPa SSW 22.2 km/h 35.2 km/h 87 % 0 mm
09:54 11 °C 8.7 °C 1029.7 hPa South 19.2 km/h 25.9 km/h 86 % 0 mm
09:59 11.1 °C 8.8 °C 1029.7 hPa South 17.2 km/h 29.6 km/h 86 % 0 mm
10:04 11.1 °C 8.7 °C 1029.7 hPa South 11.9 km/h 22.2 km/h 85 % 0 mm
10:09 11.2 °C 8.7 °C 1029.7 hPa South 12.7 km/h 18.5 km/h 85 % 0 mm
10:19 11.3 °C 8.7 °C 1029.7 hPa SSE 16.1 km/h 25.9 km/h 84 % 0 mm
10:24 11.3 °C 8.7 °C 1029.7 hPa South 16.1 km/h 25.9 km/h 84 % 0 mm
10:29 11.3 °C 8.5 °C 1029.7 hPa North 21.1 km/h 29.6 km/h 83 % 0 mm
10:34 11.3 °C 8.6 °C 1030 hPa SSE 11.3 km/h 24.1 km/h 83 % 0 mm
10:39 11.3 °C 8.1 °C 1030 hPa South 11.9 km/h 24.1 km/h 81 % 0 mm
10:44 11.3 °C 8.1 °C 1030 hPa SSE 12.7 km/h 27.8 km/h 81 % 0 mm
10:49 11.3 °C 8.2 °C 1030 hPa South 16.7 km/h 25.9 km/h 81 % 0 mm
10:54 11.3 °C 8.2 °C 1030 hPa South 15 km/h 24.1 km/h 81 % 0 mm
10:59 11.4 °C 8.2 °C 1030 hPa South 15.6 km/h 24.1 km/h 81 % 0 mm
11:04 11.4 °C 8.2 °C 1030 hPa South 9.2 km/h 20.4 km/h 81 % 0 mm
11:14 11.4 °C 8.4 °C 1030 hPa South 16.6 km/h 29.6 km/h 82 % 0 mm
11:19 11.4 °C 8.2 °C 1030 hPa South 12.9 km/h 24.1 km/h 81 % 0 mm
11:24 11.6 °C 8.4 °C 1030 hPa SSE 15 km/h 18.5 km/h 81 % 0 mm
11:34 11.7 °C 8.2 °C 1029.7 hPa SSE 15.3 km/h 31.5 km/h 79 % 0 mm
11:39 11.8 °C 8.4 °C 1029.7 hPa South 13.8 km/h 16.7 km/h 80 % 0 mm
11:44 11.8 °C 8.4 °C 1029.7 hPa SSW 16.7 km/h 20.4 km/h 80 % 0 mm
11:49 11.8 °C 8.5 °C 1029.7 hPa South 10.9 km/h 20.4 km/h 80 % 0 mm
11:54 11.8 °C 8.3 °C 1029.7 hPa South 13 km/h 24.1 km/h 79 % 0 mm
11:59 11.9 °C 8.2 °C 1029.7 hPa South 15.3 km/h 25.9 km/h 78 % 0 mm
12:05 11.9 °C 8 °C 1029.7 hPa SSE 17.5 km/h 18.5 km/h 77 % 0 mm
12:10 12 °C 8.3 °C 1029.7 hPa South 11.3 km/h 22.2 km/h 78 % 0 mm
12:15 11.9 °C 8.4 °C 1029.3 hPa SE 17.5 km/h 24.1 km/h 79 % 0 mm
12:19 11.9 °C 8.4 °C 1029.3 hPa South 13.5 km/h 18.5 km/h 79 % 0 mm
12:25 11.9 °C 8.6 °C 1029.7 hPa North 3.7 km/h 9.3 km/h 80 % 0 mm
12:30 12 °C 8.3 °C 1029.3 hPa South 18.5 km/h 27.4 km/h 78 % 0 mm
12:35 12.1 °C 8.3 °C 1029.3 hPa SSE 13.2 km/h 18.5 km/h 78 % 0 mm
12:40 12.1 °C 8.4 °C 1029.3 hPa SSE 10.9 km/h 24.1 km/h 78 % 0 mm
12:45 12.2 °C 8.6 °C 1029 hPa SSW 15.4 km/h 22.2 km/h 79 % 0 mm
12:50 12.1 °C 8.5 °C 1029 hPa South 16.4 km/h 27.8 km/h 79 % 0 mm
12:55 12.1 °C 8.8 °C 1029 hPa SSE 14.3 km/h 22.2 km/h 80 % 0 mm
13:01 12.3 °C 8.7 °C 1029 hPa SSW 18.5 km/h 18.5 km/h 79 % 0 mm
13:06 12.2 °C 8.5 °C 1029 hPa South 15.6 km/h 24.1 km/h 78 % 0 mm
13:11 12.3 °C 8.6 °C 1028.7 hPa South 11.9 km/h 22.2 km/h 78 % 0 mm
13:16 12.6 °C 8.6 °C 1028.7 hPa South 14.2 km/h 22.5 km/h 77 % 0 mm
13:21 12.5 °C 8.4 °C 1028.7 hPa South 15.1 km/h 29 km/h 76 % 0 mm
13:26 12.6 °C 8.4 °C 1028.7 hPa North 16.4 km/h 24.1 km/h 76 % 0 mm
13:31 12.7 °C 8.3 °C 1028.3 hPa SSE 20.8 km/h 31.5 km/h 75 % 0 mm
13:36 12.7 °C 8.3 °C 1028.7 hPa SSE 19.2 km/h 25.9 km/h 75 % 0 mm
13:41 13 °C 8.3 °C 1028.7 hPa South 16.6 km/h 24.1 km/h 73 % 0 mm
13:46 12.8 °C 7.9 °C 1028.7 hPa SSE 18.7 km/h 31.5 km/h 72 % 0 mm
13:51 13.1 °C 8.5 °C 1028.3 hPa South 17.2 km/h 25.9 km/h 74 % 0 mm
13:56 13 °C 8.4 °C 1028.3 hPa SSW 21.4 km/h 25.9 km/h 74 % 0 mm
14:01 12.8 °C 8.7 °C 1028.3 hPa South 15.4 km/h 18.5 km/h 76 % 0 mm
14:06 12.6 °C 8.7 °C 1028.3 hPa South 8.9 km/h 24.1 km/h 77 % 0 mm
14:11 12.7 °C 8.9 °C 1028.3 hPa SSW 15.4 km/h 20.9 km/h 78 % 0 mm
14:16 12.7 °C 8.7 °C 1028.3 hPa SSE 10.9 km/h 18.5 km/h 77 % 0 mm
14:21 12.7 °C 8.7 °C 1028.3 hPa South 15.1 km/h 18.5 km/h 77 % 0 mm
14:26 12.6 °C 8.6 °C 1028.3 hPa SSE 13.5 km/h 18.5 km/h 77 % 0 mm
14:31 12.5 °C 8.8 °C 1028.3 hPa North 14.3 km/h 14.8 km/h 78 % 0 mm
14:36 12.5 °C 8.6 °C 1028.3 hPa SSE 7.2 km/h 16.7 km/h 77 % 0 mm
14:41 12.6 °C 8.5 °C 1028.3 hPa SSW 13.8 km/h 19.3 km/h 76 % 0 mm
14:46 12.7 °C 8.4 °C 1028.3 hPa South 13.4 km/h 18.5 km/h 75 % 0 mm
14:51 12.9 °C 8.6 °C 1028.3 hPa South 7.2 km/h 9.3 km/h 75 % 0 mm
14:56 12.9 °C 8.8 °C 1028.3 hPa South 17.2 km/h 27.4 km/h 76 % 0 mm
15:01 12.8 °C 8.3 °C 1028.3 hPa South 13.2 km/h 18.5 km/h 74 % 0 mm
15:06 12.6 °C 8.3 °C 1028.3 hPa South 10.5 km/h 14.8 km/h 75 % 0 mm
15:11 12.5 °C 8 °C 1028.3 hPa North 14 km/h 22.2 km/h 74 % 0 mm
15:16 12.5 °C 8 °C 1028.3 hPa South 12.2 km/h 16.7 km/h 74 % 0 mm
15:21 12.6 °C 8.1 °C 1028.7 hPa SSW 11.9 km/h 18.5 km/h 74 % 0 mm
15:26 12.7 °C 7.9 °C 1028.7 hPa South 9.3 km/h 16.7 km/h 73 % 0 mm
15:31 12.6 °C 7.9 °C 1028.7 hPa South 10 km/h 16.7 km/h 73 % 0 mm
15:36 12.7 °C 7.9 °C 1028.7 hPa South 11.4 km/h 18.5 km/h 73 % 0 mm
15:41 12.6 °C 7.9 °C 1028.3 hPa South 14.2 km/h 18.5 km/h 73 % 0 mm
15:46 12.6 °C 7.9 °C 1028.3 hPa South 8.7 km/h 13 km/h 73 % 0 mm
15:51 12.7 °C 7.9 °C 1028.7 hPa South 14 km/h 16.1 km/h 73 % 0 mm
15:56 12.6 °C 8.1 °C 1028.7 hPa SSW 9.2 km/h 14.8 km/h 74 % 0 mm
16:01 12.6 °C 8.1 °C 1028.3 hPa South 10.8 km/h 18.5 km/h 74 % 0 mm
16:06 12.5 °C 8 °C 1028.3 hPa South 10 km/h 16.7 km/h 74 % 0 mm
16:11 12.5 °C 8 °C 1028.3 hPa SSW 11.9 km/h 13 km/h 74 % 0 mm
16:16 12.5 °C 8 °C 1028.3 hPa SSW 6.6 km/h 9.7 km/h 74 % 0 mm
16:21 12.4 °C 7.7 °C 1028.3 hPa South 14.3 km/h 20.4 km/h 73 % 0 mm
16:26 12.4 °C 7.7 °C 1028.7 hPa South 13.7 km/h 18.5 km/h 73 % 0 mm
16:31 12.4 °C 7.9 °C 1028.3 hPa South 12.4 km/h 14.8 km/h 74 % 0 mm
16:37 12.3 °C 7.8 °C 1028.3 hPa South 14.6 km/h 18.5 km/h 74 % 0 mm
16:42 12.3 °C 8 °C 1028.3 hPa South 10.1 km/h 11.1 km/h 75 % 0 mm
16:47 12.3 °C 7.9 °C 1028.3 hPa North 9.7 km/h 14.8 km/h 75 % 0 mm
16:52 12.3 °C 8.2 °C 1028.7 hPa South 8.4 km/h 16.7 km/h 76 % 0 mm
16:57 12.2 °C 8.3 °C 1028.3 hPa South 7.9 km/h 9.3 km/h 77 % 0 mm
17:02 12.2 °C 8.1 °C 1028.3 hPa South 4.5 km/h 13 km/h 76 % 0 mm
17:07 12.2 °C 7.9 °C 1028.3 hPa SSW 10.3 km/h 18.5 km/h 75 % 0 mm
17:12 12.1 °C 7.6 °C 1028.7 hPa SSW 12.7 km/h 18.5 km/h 74 % 0 mm
17:17 12.1 °C 7.6 °C 1028.7 hPa South 7.6 km/h 11.1 km/h 74 % 0 mm
17:22 12.1 °C 7.6 °C 1028.7 hPa South 7.6 km/h 9.3 km/h 74 % 0 mm
17:27 11.9 °C 7.7 °C 1028.3 hPa South 10.3 km/h 10.3 km/h 75 % 0 mm
17:32 11.9 °C 7.8 °C 1028.3 hPa South 6.4 km/h 11.1 km/h 76 % 0 mm
17:37 11.8 °C 7.7 °C 1028.3 hPa South 8 km/h 11.1 km/h 76 % 0 mm
17:42 11.8 °C 7.7 °C 1028.7 hPa SSW 5.8 km/h 11.1 km/h 76 % 0 mm
17:47 11.7 °C 7.8 °C 1028.7 hPa North 7.2 km/h 11.1 km/h 77 % 0 mm
17:52 11.7 °C 7.8 °C 1028.3 hPa SSW 9 km/h 14.8 km/h 77 % 0 mm
17:57 11.6 °C 7.9 °C 1028.3 hPa North 7.6 km/h 11.1 km/h 78 % 0 mm
18:02 11.5 °C 8 °C 1028.7 hPa SSW 9 km/h 13 km/h 79 % 0 mm
18:07 11.4 °C 8.2 °C 1028.7 hPa North 8.9 km/h 9.7 km/h 81 % 0 mm
18:12 11.3 °C 8.4 °C 1028.7 hPa North 10.3 km/h 14.8 km/h 82 % 0 mm
18:17 11.3 °C 8.3 °C 1028.7 hPa SSW 8 km/h 18.5 km/h 82 % 0 mm
18:22 11.2 °C 8.4 °C 1028.7 hPa North 10 km/h 13 km/h 83 % 0 mm
18:27 11.2 °C 8.6 °C 1028.7 hPa SSW 9.8 km/h 16.7 km/h 84 % 0 mm
18:32 11 °C 8.4 °C 1028.7 hPa SSW 8 km/h 11.1 km/h 84 % 0 mm
18:37 10.9 °C 8.5 °C 1028.7 hPa SSW 8.5 km/h 13 km/h 85 % 0 mm
18:42 10.8 °C 8.4 °C 1028.7 hPa South 10.1 km/h 13 km/h 85 % 0 mm
18:47 10.8 °C 8.6 °C 1028.7 hPa South 9.5 km/h 14.8 km/h 86 % 0 mm
18:52 10.8 °C 8.7 °C 1028.7 hPa SSW 9 km/h 18.5 km/h 87 % 0 mm
18:57 10.8 °C 8.7 °C 1028.7 hPa SSW 12.9 km/h 18.5 km/h 87 % 0 mm
19:02 10.7 °C 8.8 °C 1028.7 hPa North 12.7 km/h 20.4 km/h 88 % 0 mm
19:07 10.7 °C 8.8 °C 1028.7 hPa South 13.4 km/h 18.5 km/h 88 % 0 mm
19:12 10.6 °C 8.9 °C 1028.7 hPa South 11.7 km/h 18.5 km/h 89 % 0 mm
19:17 10.5 °C 8.8 °C 1028.7 hPa South 11.3 km/h 20.4 km/h 89 % 0 mm
19:22 10.4 °C 8.9 °C 1028.7 hPa South 12.1 km/h 18.5 km/h 90 % 0 mm
19:27 10.4 °C 8.8 °C 1028.7 hPa South 12.7 km/h 19.3 km/h 90 % 0 mm
19:32 10.3 °C 8.9 °C 1028.7 hPa South 6 km/h 11.3 km/h 91 % 0 mm
19:37 10.3 °C 8.9 °C 1029 hPa South 9 km/h 12.9 km/h 91 % 0 mm
19:42 10.2 °C 8.8 °C 1029 hPa North 10.3 km/h 18.5 km/h 91 % 0 mm
19:47 10.1 °C 8.9 °C 1029 hPa SSW 10.8 km/h 16.7 km/h 92 % 0 mm
19:52 10.1 °C 8.8 °C 1029 hPa SSW 11.4 km/h 20.4 km/h 92 % 0 mm
19:57 9.9 °C 8.7 °C 1029 hPa SSW 12.9 km/h 18.5 km/h 92 % 0 mm
20:02 9.9 °C 8.7 °C 1029 hPa South 13.5 km/h 27.8 km/h 92 % 0 mm
20:07 10 °C 8.9 °C 1029 hPa North 11.3 km/h 18.5 km/h 93 % 0 mm
20:12 9.9 °C 8.9 °C 1029 hPa South 10 km/h 14.8 km/h 93 % 0 mm
20:17 9.9 °C 8.9 °C 1029 hPa South 15.1 km/h 20.4 km/h 93 % 0 mm
20:22 9.9 °C 8.8 °C 1029 hPa SSW 12.1 km/h 16.7 km/h 93 % 0 mm
20:27 9.9 °C 8.8 °C 1029 hPa North 8.2 km/h 14.8 km/h 93 % 0 mm
20:32 9.9 °C 8.8 °C 1029 hPa South 11.7 km/h 18.5 km/h 93 % 0 mm
20:37 9.8 °C 8.9 °C 1029 hPa South 14.2 km/h 20.4 km/h 94 % 0 mm
20:42 9.8 °C 8.9 °C 1029 hPa South 10.3 km/h 17.7 km/h 94 % 0 mm
20:47 9.8 °C 8.8 °C 1029.3 hPa South 10.5 km/h 16.7 km/h 94 % 0 mm
20:52 9.8 °C 8.8 °C 1029.3 hPa South 8.9 km/h 14.8 km/h 94 % 0 mm
20:57 9.7 °C 8.6 °C 1029.3 hPa North 6.4 km/h 11.1 km/h 93 % 0 mm
21:02 9.5 °C 8.4 °C 1029.3 hPa North 5.5 km/h 7.4 km/h 93 % 0 mm
21:07 9.3 °C 8.2 °C 1029.3 hPa North 6 km/h 11.1 km/h 93 % 0 mm
21:12 9.1 °C 8.2 °C 1029.3 hPa North 7.6 km/h 11.3 km/h 94 % 0 mm
21:17 9 °C 8.1 °C 1029.3 hPa South 6.3 km/h 9.3 km/h 94 % 0 mm
21:22 9.1 °C 8.2 °C 1029.3 hPa North 10 km/h 13 km/h 94 % 0 mm
21:27 9.3 °C 8.6 °C 1029.3 hPa South 9 km/h 14.8 km/h 95 % 0 mm
21:32 9.6 °C 8.8 °C 1029.3 hPa South 5.5 km/h 14.8 km/h 95 % 0 mm
21:37 9.7 °C 8.9 °C 1029.3 hPa North 10.5 km/h 12.9 km/h 95 % 0 mm
21:42 9.8 °C 9 °C 1029.3 hPa North 9.7 km/h 18.5 km/h 95 % 0 mm
21:47 9.8 °C 9 °C 1029.3 hPa North 10 km/h 18.5 km/h 95 % 0 mm
21:52 9.8 °C 9.1 °C 1029.3 hPa South 9.7 km/h 14.8 km/h 95 % 0 mm
21:57 9.8 °C 9 °C 1029.3 hPa South 6.9 km/h 13 km/h 95 % 0 mm
22:02 9.8 °C 9 °C 1029.3 hPa South 6.6 km/h 18.5 km/h 95 % 0 mm
22:07 9.7 °C 8.9 °C 1029.3 hPa North 7.9 km/h 9.3 km/h 95 % 0 mm
22:12 9.7 °C 8.9 °C 1029.3 hPa SSE 10.6 km/h 16.7 km/h 95 % 0 mm
22:17 9.6 °C 8.8 °C 1029.7 hPa SSE 3.9 km/h 8 km/h 95 % 0 mm
22:22 9.6 °C 8.8 °C 1029.3 hPa SSE 7.7 km/h 11.3 km/h 95 % 0 mm
22:27 9.6 °C 8.8 °C 1029.3 hPa SSE 5.3 km/h 11.3 km/h 95 % 0 mm
22:32 9.5 °C 8.7 °C 1029.3 hPa SSE 6.6 km/h 9.3 km/h 95 % 0 mm
22:37 9.6 °C 8.8 °C 1029.3 hPa SSE 8.5 km/h 11.1 km/h 95 % 0 mm
22:42 9.6 °C 8.8 °C 1029.3 hPa North 4.5 km/h 7.4 km/h 95 % 0 mm
22:47 9.6 °C 8.8 °C 1029.3 hPa SSE 7.9 km/h 14.8 km/h 95 % 0 mm
22:52 9.5 °C 8.7 °C 1029.3 hPa North 10.1 km/h 14.8 km/h 95 % 0 mm
22:57 9.5 °C 8.7 °C 1029.3 hPa SSE 6 km/h 11.1 km/h 95 % 0 mm
23:02 9.5 °C 8.7 °C 1029.3 hPa SSE 6.4 km/h 9.7 km/h 95 % 0 mm
23:07 9.5 °C 8.7 °C 1029.3 hPa South 6.3 km/h 13 km/h 95 % 0 mm
23:12 9.5 °C 8.7 °C 1029.3 hPa North 6.9 km/h 9.3 km/h 95 % 0 mm
23:17 9.6 °C 8.8 °C 1029 hPa SSE 4.5 km/h 8 km/h 95 % 0 mm
23:22 9.6 °C 8.8 °C 1029 hPa SSE 9.3 km/h 14.8 km/h 95 % 0 mm
23:27 9.6 °C 8.8 °C 1029 hPa SSE 4.5 km/h 6.4 km/h 95 % 0 mm
23:32 9.6 °C 8.8 °C 1029 hPa North 4.7 km/h 9.3 km/h 95 % 0 mm
23:37 9.5 °C 8.7 °C 1029 hPa South 6 km/h 11.1 km/h 95 % 0 mm
23:42 9.5 °C 8.7 °C 1029 hPa SSE 6.6 km/h 13 km/h 95 % 0 mm
23:47 9.5 °C 8.7 °C 1029 hPa North 6.1 km/h 9.3 km/h 95 % 0 mm
23:52 9.4 °C 8.7 °C 1029 hPa North 8.5 km/h 14.5 km/h 95 % 0 mm
23:57 9.4 °C 8.6 °C 1029 hPa North 9.5 km/h 9.7 km/h 95 % 0 mm
Ararat Weather
Compliments of Weather Underground - 2.25 mb
Click here to send mail.


ABOUT

Live weather data from Ararat, Victoria, Australia, 3377
Data uploaded from Cumulus every 5 minutes to Weather Underground.
This site then downloads the raw data for formatting and display.
Metric and imperial data can be displayed. Graphs and historical data available.
Includes Sun and Moon times and rain image live from BOM.

Check out Ararat Weather on Facebook, Twitter and Google +

Help support ongoing costs by checking out the ads





Follow @AraratWeather